Weather History for Guarulhos, Brazil

Change the Weather History Date:

Sunday, November 10, 2013

  Actual Average Record
Temperature  
Mean Temperature 73 °F -  
Max Temperature 87 °F 76 °F 95 °F (1997)
Min Temperature 59 °F 60 °F 53 °F (1999)
Cooling Degree Days 8    
Growing Degree Days 23 (Base 50)    
Moisture  
Dew Point 60 °F    
Average Humidity 71    
Maximum Humidity 94    
Minimum Humidity 35    
Precipitation  
Precipitation 0.00 in - - ()
Sea Level Pressure  
Sea Level Pressure 29.96 in    
Wind  
Wind Speed 4 mph ()    
Max Wind Speed 10 mph    
Max Gust Speed -    
Visibility 2.7 miles    
Events Fog    
Averages and records for this station are not official NWS values.
T = Trace of Precipitation, MM = Missing Value Source: Averaged Metar Reports

Daily Weather History Graph

Daily Weather History Graph

Search for Another Location

Airport:

Trip Planner

Search our weather history database for the weather conditions in past years. The results will help you decide how hot, cold, wet, or windy it might be!

Date:

Astronomy

Nov. 10, 2013 Rise Set
Actual Time 6:15 AM BRST 7:24 PM BRST
Civil Twilight 5:51 AM BRST 7:48 PM BRST
Nautical Twilight 5:22 AM BRST 8:17 PM BRST
Astronomical Twilight 4:53 AM BRST 8:46 PM BRST
Moon 1:07 PM BRST (11/10) 1:15 AM BRST (11/10)
Length of Visible Light 13h 57m
Length of Day
13h 09m
First Quarter, 54% of the Moon is Illuminated
Nov 10
First Quarter
Nov 17
Full
Nov 25
Last Quarter
Dec 2
New
Dec 9
First Quarter

Hourly Weather History & Observations

Time (BRST) Temp. Heat Index Dew Point Humidity Pressure Visibility Wind Dir Wind Speed Gust Speed Precip Events Conditions
12:00 AM 66.2 °F - 60.8 °F 83% 30.01 in - East 2.3 mph - N/A   Clear
1:00 AM 64.4 °F - 59.0 °F 83% 29.98 in - ENE 4.6 mph - N/A   Clear
2:00 AM 62.6 °F - 59.0 °F 88% 29.98 in - East 5.8 mph - N/A   Clear
3:00 AM 62.6 °F - 59.0 °F 88% 29.95 in - ENE 5.8 mph - N/A   Clear
4:00 AM 60.8 °F - 57.2 °F 88% 29.95 in - NE 2.3 mph - N/A   Clear
5:00 AM 59.0 °F - 57.2 °F 94% 29.95 in - East 2.3 mph - N/A   Clear
6:00 AM 60.8 °F - 57.2 °F 88% 29.95 in 5.0 mi East 2.3 mph - N/A   Unknown
7:00 AM 62.6 °F - 59.0 °F 88% 29.98 in 4.3 mi East 4.6 mph - N/A   Unknown
7:20 AM 62.6 °F - 59.0 °F 88% 29.98 in 4.3 mi ENE 6.9 mph - N/A   Mostly Cloudy
7:43 AM 62.6 °F - 60.8 °F 94% 29.98 in 0.6 mi East 8.1 mph - N/A Fog Fog
8:00 AM 62.6 °F - 60.8 °F 94% 30.01 in 0.4 mi East 9.2 mph - N/A Fog Fog
9:00 AM 64.4 °F - 62.6 °F 94% 30.01 in 0.6 mi ENE 10.4 mph - N/A   Overcast
9:15 AM 64.4 °F - 62.6 °F 94% 30.01 in 1.2 mi ENE 9.2 mph - N/A   Overcast
9:40 AM 68.0 °F - 64.4 °F 88% 30.01 in 3.1 mi ENE 8.1 mph - N/A   Mostly Cloudy
10:00 AM 69.8 °F - 64.4 °F 83% 30.01 in 5.0 mi East 6.9 mph - N/A   Scattered Clouds
11:00 AM 75.2 °F - 62.6 °F 65% 29.98 in - East 8.1 mph - N/A   Clear
12:00 PM 80.6 °F 81.5 °F 60.8 °F 51% 29.98 in - ENE 6.9 mph - N/A   Clear
1:00 PM 82.4 °F 82.5 °F 59.0 °F 45% 29.95 in - NNW 4.6 mph - N/A   Clear
2:00 PM 86.0 °F 84.9 °F 57.2 °F 37% 29.92 in - NE 3.5 mph - N/A   Clear
3:00 PM 87.8 °F 86.5 °F 57.2 °F 35% 29.92 in - WSW 2.3 mph - N/A   Clear
4:00 PM 87.8 °F 87.1 °F 59.0 °F 38% 29.89 in - SSE 3.5 mph - N/A   Clear
5:00 PM 87.8 °F 86.5 °F 57.2 °F 35% 29.89 in - ESE 4.6 mph - N/A   Clear
6:00 PM 86.0 °F 85.4 °F 59.0 °F 40% 29.89 in - ESE 6.9 mph - N/A   Clear
7:00 PM 82.4 °F 83.4 °F 62.6 °F 51% 29.89 in - SSE 5.8 mph - N/A   Clear
8:00 PM 78.8 °F - 62.6 °F 57% 29.92 in - SE 5.8 mph - N/A   Clear
9:00 PM 77.0 °F - 60.8 °F 57% 29.95 in - ESE 3.5 mph - N/A   Clear
10:00 PM 71.6 °F - 59.0 °F 64% 29.95 in - SSE 2.3 mph - N/A   Clear
11:00 PM 71.6 °F - 60.8 °F 69% 29.95 in - East 2.3 mph - N/A   Clear